Hourly Weather Natal

Today, 9 July, Thursday

Time Temperature Precipitation Wind Pressure Humidity
00:00 +26°C° 0 mm 4 mps 760 mmHg 89%
01:00 +26°C° 0 mm 4 mps 760 mmHg 90%
02:00 +25°C° 0.4 mm 4 mps 760 mmHg 90%
03:00 +25°C° 0.4 mm 4 mps 759 mmHg 90%
04:00 +25°C° 0.4 mm 4 mps 759 mmHg 91%
05:00 +25°C° 1.2 mm 4 mps 759 mmHg 91%
06:00 +25°C° 1.2 mm 4 mps 760 mmHg 91%
07:00 +25°C° 1.2 mm 4 mps 760 mmHg 91%
08:00 +26°C° 1.6 mm 4 mps 760 mmHg 89%
09:00 +26°C° 1.6 mm 5 mps 760 mmHg 87%
10:00 +27°C° 1.6 mm 5 mps 761 mmHg 85%
11:00 +28°C° 1.1 mm 5 mps 761 mmHg 82%
12:00 +28°C° 1.1 mm 5 mps 761 mmHg 79%
13:00 +29°C° 1.1 mm 5 mps 760 mmHg 76%
14:00 +29°C° 1.3 mm 5 mps 760 mmHg 76%
15:00 +29°C° 1.3 mm 5 mps 760 mmHg 75%
16:00 +29°C° 1.3 mm 5 mps 759 mmHg 75%
17:00 +28°C° 0.6 mm 5 mps 760 mmHg 77%
18:00 +28°C° 0.6 mm 5 mps 760 mmHg 80%
19:00 +27°C° 0.6 mm 4 mps 760 mmHg 82%
20:00 +27°C° 0 mm 4 mps 760 mmHg 83%
21:00 +27°C° 0 mm 4 mps 761 mmHg 85%
22:00 +27°C° 0 mm 4 mps 761 mmHg 86%
23:00 +27°C° 0 mm 4 mps 761 mmHg 87%

Tomorrow, 10 July, Friday

Time Temperature Precipitation Wind Pressure Humidity
00:00 +26°C° 0 mm 4 mps 761 mmHg 88%
01:00 +26°C° 0 mm 4 mps 761 mmHg 89%
02:00 +26°C° 0 mm 4 mps 760 mmHg 89%
03:00 +26°C° 0 mm 4 mps 760 mmHg 89%
04:00 +26°C° 0 mm 4 mps 759 mmHg 89%
05:00 +26°C° 0.1 mm 4 mps 760 mmHg 89%
06:00 +26°C° 0.1 mm 4 mps 760 mmHg 89%
07:00 +26°C° 0.1 mm 4 mps 760 mmHg 89%
08:00 +27°C° 0 mm 5 mps 760 mmHg 83%
09:00 +28°C° 0 mm 5 mps 761 mmHg 77%
10:00 +29°C° 0 mm 6 mps 761 mmHg 71%
11:00 +30°C° 0 mm 6 mps 761 mmHg 67%
12:00 +30°C° 0 mm 6 mps 760 mmHg 64%
13:00 +32°C° 0 mm 6 mps 760 mmHg 61%
14:00 +32°C° 0 mm 6 mps 760 mmHg 63%
15:00 +30°C° 0 mm 6 mps 759 mmHg 65%
16:00 +30°C° 0 mm 6 mps 759 mmHg 67%
17:00 +29°C° 0 mm 6 mps 759 mmHg 71%
18:00 +28°C° 0 mm 5 mps 759 mmHg 76%
19:00 +27°C° 0 mm 5 mps 760 mmHg 81%
20:00 +27°C° 0 mm 5 mps 760 mmHg 83%
21:00 +26°C° 0 mm 5 mps 760 mmHg 85%
22:00 +26°C° 0 mm 5 mps 761 mmHg 87%
23:00 +26°C° 0.1 mm 5 mps 761 mmHg 87%

Day after tomorrow, 11 July, Saturday

Time Temperature Precipitation Wind Pressure Humidity
00:00 +26°C° 0.1 mm 5 mps 761 mmHg 87%
01:00 +25°C° 0.1 mm 5 mps 760 mmHg 87%
02:00 +25°C° 0.1 mm 5 mps 760 mmHg 87%
03:00 +25°C° 0.1 mm 5 mps 760 mmHg 87%
04:00 +23°C° 0.1 mm 5 mps 759 mmHg 88%
05:00 +23°C° 0 mm 6 mps 759 mmHg 88%
06:00 +23°C° 0 mm 6 mps 759 mmHg 87%
07:00 +23°C° 0 mm 6 mps 760 mmHg 87%
08:00 +26°C° 0 mm 6 mps 760 mmHg 82%
09:00 +27°C° 0 mm 7 mps 760 mmHg 78%
10:00 +28°C° 0 mm 7 mps 761 mmHg 73%
11:00 +29°C° 0 mm 7 mps 760 mmHg 70%
12:00 +30°C° 0 mm 7 mps 760 mmHg 67%
13:00 +32°C° 0 mm 7 mps 760 mmHg 65%
14:00 +31°C° 0.1 mm 8 mps 759 mmHg 66%
15:00 +31°C° 0.1 mm 8 mps 758 mmHg 67%
16:00 +31°C° 0.1 mm 8 mps 758 mmHg 69%
17:00 +29°C° 0 mm 8 mps 758 mmHg 72%
18:00 +28°C° 0 mm 7 mps 758 mmHg 76%
19:00 +27°C° 0 mm 7 mps 759 mmHg 79%
20:00 +27°C° 0.1 mm 6 mps 759 mmHg 79%
21:00 +26°C° 0.1 mm 6 mps 760 mmHg 80%
22:00 +26°C° 0.1 mm 6 mps 760 mmHg 81%
23:00 +26°C° 0.1 mm 6 mps 760 mmHg 82%

12 July, Sunday

Time Temperature Precipitation Wind Pressure Humidity
00:00 +26°C° 0.1 mm 6 mps 760 mmHg 83%
01:00 +24°C° 0.1 mm 6 mps 759 mmHg 84%
02:00 +24°C° 0.1 mm 6 mps 759 mmHg 85%
03:00 +25°C° 0.1 mm 5 mps 759 mmHg 86%
04:00 +25°C° 0.1 mm 5 mps 758 mmHg 86%
05:00 +23°C° 0.1 mm 5 mps 759 mmHg 87%
06:00 +23°C° 0.1 mm 5 mps 759 mmHg 87%
07:00 +23°C° 0.1 mm 5 mps 759 mmHg 88%
08:00 +26°C° 0 mm 5 mps 760 mmHg 82%
09:00 +27°C° 0 mm 6 mps 760 mmHg 76%
10:00 +29°C° 0 mm 6 mps 760 mmHg 71%
11:00 +29°C° 0 mm 6 mps 760 mmHg 69%
12:00 +30°C° 0 mm 7 mps 759 mmHg 66%
13:00 +30°C° 0 mm 7 mps 759 mmHg 64%
14:00 +30°C° 0 mm 7 mps 759 mmHg 65%
15:00 +30°C° 0 mm 7 mps 758 mmHg 66%
16:00 +29°C° 0 mm 7 mps 758 mmHg 66%
17:00 +28°C° 0 mm 6 mps 758 mmHg 70%
18:00 +28°C° 0 mm 5 mps 759 mmHg 74%
19:00 +27°C° 0 mm 5 mps 759 mmHg 78%
20:00 +26°C° 0 mm 5 mps 759 mmHg 80%
21:00 +26°C° 0 mm 4 mps 760 mmHg 82%
22:00 +25°C° 0 mm 4 mps 760 mmHg 83%
23:00 +25°C° 0 mm 4 mps 760 mmHg 84%

13 July, Monday

Time Temperature Precipitation Wind Pressure Humidity
00:00 +25°C° 0 mm 4 mps 760 mmHg 85%
01:00 +25°C° 0 mm 4 mps 759 mmHg 86%
02:00 +23°C° 0.1 mm 4 mps 759 mmHg 87%
03:00 +23°C° 0.1 mm 4 mps 759 mmHg 89%
04:00 +23°C° 0.1 mm 4 mps 758 mmHg 90%
05:00 +23°C° 0.1 mm 4 mps 759 mmHg 90%
06:00 +23°C° 0.1 mm 4 mps 759 mmHg 90%
07:00 +23°C° 0.1 mm 4 mps 759 mmHg 90%
08:00 +26°C° 0.2 mm 4 mps 760 mmHg 85%
09:00 +27°C° 0.2 mm 5 mps 760 mmHg 80%
10:00 +29°C° 0.2 mm 5 mps 761 mmHg 74%
11:00 +29°C° 0.2 mm 5 mps 760 mmHg 72%
12:00 +30°C° 0.2 mm 6 mps 760 mmHg 70%
13:00 +30°C° 0.2 mm 6 mps 760 mmHg 67%
14:00 +30°C° 0.1 mm 6 mps 759 mmHg 67%
15:00 +30°C° 0.1 mm 6 mps 759 mmHg 67%
16:00 +30°C° 0.1 mm 6 mps 759 mmHg 67%
17:00 +29°C° 0 mm 6 mps 759 mmHg 72%
18:00 +28°C° 0 mm 5 mps 759 mmHg 76%
19:00 +27°C° 0 mm 5 mps 760 mmHg 80%
20:00 +27°C° 0.1 mm 5 mps 760 mmHg 82%
21:00 +27°C° 0.1 mm 4 mps 760 mmHg 84%
22:00 +26°C° 0.1 mm 4 mps 761 mmHg 86%
23:00 +26°C° 0.2 mm 4 mps 760 mmHg 87%

14 July, Tuesday

Time Temperature Precipitation Wind Pressure Humidity
00:00 +26°C° 0.2 mm 4 mps 760 mmHg 88%
01:00 +26°C° 0.2 mm 4 mps 760 mmHg 89%
02:00 +25°C° 0.3 mm 4 mps 759 mmHg 90%
03:00 +25°C° 0.3 mm 4 mps 759 mmHg 90%
04:00 +25°C° 0.3 mm 4 mps 759 mmHg 90%
05:00 +25°C° 0.2 mm 4 mps 759 mmHg 90%
06:00 +25°C° 0.2 mm 4 mps 759 mmHg 91%
07:00 +25°C° 0.2 mm 4 mps 760 mmHg 91%
08:00 +26°C° 0.2 mm 5 mps 760 mmHg 85%
09:00 +27°C° 0.2 mm 5 mps 760 mmHg 80%
10:00 +29°C° 0.2 mm 6 mps 761 mmHg 75%
11:00 +29°C° 0.2 mm 6 mps 760 mmHg 73%
12:00 +30°C° 0.2 mm 6 mps 760 mmHg 71%
13:00 +30°C° 0.2 mm 6 mps 759 mmHg 70%
14:00 +30°C° 0.1 mm 6 mps 759 mmHg 70%
15:00 +30°C° 0.1 mm 6 mps 759 mmHg 70%
16:00 +30°C° 0.1 mm 6 mps 759 mmHg 70%
17:00 +29°C° 0 mm 6 mps 759 mmHg 73%
18:00 +28°C° 0 mm 6 mps 759 mmHg 77%
19:00 +27°C° 0 mm 5 mps 759 mmHg 80%
20:00 +27°C° 0.3 mm 5 mps 760 mmHg 81%
21:00 +27°C° 0.3 mm 5 mps 760 mmHg 82%
22:00 +26°C° 0.3 mm 5 mps 761 mmHg 83%
23:00 +26°C° 0.4 mm 5 mps 760 mmHg 83%
Show more